Weather History for KROA - November, 2014

Change the Weather History Date:

Thursday, November 13, 2014

  Actual Average Record
Temperature  
Mean Temperature 42 °F 49 °F  
Max Temperature 48 °F 60 °F 78 °F (1958)
Min Temperature 35 °F 38 °F 19 °F (1920)
Degree Days  
Heating Degree Days 23 16  
Month to date heating degree days 198 182  
Since 1 July heating degree days 422 479  
Cooling Degree Days 0 0  
Month to date cooling degree days 0 0  
Year to date cooling degree days 1128 1207  
Moisture  
Dew Point 30 °F    
Average Humidity 62    
Maximum Humidity 70    
Minimum Humidity 54    
Precipitation  
Precipitation T in 0.11 in 0.93 in (1935)
Month to date precipitation 0.39 1.47  
Year to date precipitation 33.76 36.38  
Snow  
Snow T in - - ()
Month to date snowfall T  
Since 1 July snowfall T  
Since 1 September snowfall T  
Snow Depth 0.00 in    
Sea Level Pressure  
Sea Level Pressure 30.11 in    
Wind  
Wind Speed 8 mph (NW)    
Max Wind Speed 17 mph    
Max Gust Speed 21 mph    
Visibility 10 miles    
Events      
T = Trace of Precipitation, MM = Missing Value Source: NWS Daily Summary

Daily Weather History Graph

Daily Weather History Graph

Search for Another Location

Airport or City:

Trip Planner

Search our weather history database for the weather conditions in past years. The results will help you decide how hot, cold, wet, or windy it might be!

Date:

Astronomy

Nov. 13, 2014 Rise Set
Actual Time 6:56 AM EST 5:10 PM EST
Civil Twilight 6:29 AM EST 5:38 PM EST
Nautical Twilight 5:57 AM EST 6:10 PM EST
Astronomical Twilight 5:27 AM EST 6:40 PM EST
Moon 11:23 PM EST (11/13) 12:18 PM EST (11/13)
Length of Visible Light 11h 09m
Length of Day
10h 13m
Waning Gibbous, 59% of the Moon is Illuminated
Nov 13
Waning Gibbous
Nov 14
Last Quarter
Nov 22
New
Nov 29
First Quarter
Dec 6
Full

Hourly Weather History & Observations

Time (EST) Temp. Windchill Dew Point Humidity Pressure Visibility Wind Dir Wind Speed Gust Speed Precip Events Conditions
12:54 AM 43.0 °F 40.3 °F 30.9 °F 62% 30.13 in 10.0 mi West 4.6 mph - N/A   Overcast
1:54 AM 43.0 °F 41.3 °F 33.1 °F 68% 30.13 in 10.0 mi WNW 3.5 mph - N/A   Overcast
2:54 AM 43.0 °F 39.5 °F 30.9 °F 62% 30.13 in 10.0 mi North 5.8 mph - N/A   Overcast
3:54 AM 42.1 °F 36.6 °F 30.9 °F 65% 30.12 in 10.0 mi NNE 9.2 mph - N/A   Overcast
4:54 AM 42.1 °F 37.7 °F 32.0 °F 67% 30.11 in 10.0 mi NNE 6.9 mph - N/A   Overcast
5:54 AM 42.1 °F 37.7 °F 32.0 °F 67% 30.12 in 10.0 mi NNE 6.9 mph - N/A   Overcast
6:54 AM 42.1 °F 37.1 °F 32.0 °F 67% 30.13 in 10.0 mi North 8.1 mph - N/A   Overcast
7:54 AM 43.0 °F 39.5 °F 32.0 °F 65% 30.15 in 10.0 mi NE 5.8 mph - N/A   Overcast
8:54 AM 44.1 °F 40.8 °F 32.0 °F 63% 30.13 in 10.0 mi NE 5.8 mph - N/A   Overcast
9:54 AM 44.1 °F 41.5 °F 32.0 °F 63% 30.12 in 10.0 mi East 4.6 mph - N/A   Overcast
10:54 AM 46.9 °F - 33.1 °F 59% 30.12 in 10.0 mi Calm Calm - N/A   Overcast
11:54 AM 46.9 °F - 34.0 °F 61% 30.10 in 10.0 mi West 5.8 mph - N/A   Overcast
12:54 PM 46.9 °F - 34.0 °F 61% 30.06 in 10.0 mi WSW 4.6 mph - N/A   Overcast
1:33 PM 46.0 °F 43.1 °F 34.0 °F 63% 30.04 in 10.0 mi Variable 5.8 mph - N/A   Overcast
1:54 PM 46.0 °F 41.9 °F 35.1 °F 66% 30.04 in 10.0 mi West 8.1 mph - N/A   Overcast
2:54 PM 44.1 °F 38.6 °F 34.0 °F 68% 30.05 in 10.0 mi NW 10.4 mph - N/A   Overcast
3:38 PM 44.1 °F 37.7 °F 32.0 °F 63% 30.06 in 10.0 mi WNW 12.7 mph - N/A   Overcast
3:54 PM 43.0 °F 36.4 °F 30.9 °F 62% 30.07 in 10.0 mi WNW 12.7 mph - N/A   Overcast
4:54 PM 42.1 °F 37.1 °F 30.9 °F 65% 30.08 in 10.0 mi WNW 8.1 mph - 0.00 in   Overcast
5:54 PM 41.0 °F 34.3 °F 28.9 °F 62% 30.09 in 10.0 mi WNW 11.5 mph - 0.00 in   Overcast
6:50 PM 39.2 °F 33.6 °F 26.6 °F 61% 30.10 in 10.0 mi WNW 8.1 mph - N/A   Overcast
6:54 PM 39.9 °F 33.9 °F 27.0 °F 60% 30.11 in 10.0 mi WNW 9.2 mph - N/A   Overcast
7:54 PM 39.0 °F 31.4 °F 25.0 °F 57% 30.12 in 10.0 mi NW 12.7 mph - N/A   Overcast
8:54 PM 37.9 °F 30.5 °F 24.1 °F 57% 30.13 in 10.0 mi NW 11.5 mph - N/A   Overcast
9:54 PM 37.0 °F 28.5 °F 24.1 °F 59% 30.13 in 10.0 mi NW 13.8 mph - 0.00 in   Overcast
10:54 PM 36.0 °F 28.0 °F 24.1 °F 62% 30.13 in 10.0 mi North 11.5 mph - N/A   Overcast
11:54 PM 35.1 °F 27.4 °F 21.9 °F 59% 30.13 in 10.0 mi NNW 10.4 mph - N/A   Overcast